Terminal Aerodrome Forecast
Issued by NWS Greer, SC

Home | Current Version | Previous Version | Text Only | Print | Product List | Glossary On
Versions: 1 2 3 4 5 6 7 8 9 10 11 12 13 14 15 16 17 18 19 20 21 22 23 24 25 26 27 28 29 30 31 32 33 34 35 36 37
000
FTUS42 KGSP 312059 AAA
TAFCLT
TAF AMD
KCLT 312059Z 3121/0118 21007KT P6SM SCT180 BKN250
     FM010000 22003KT P6SM BKN180 OVC250
     FM011200 20006KT P6SM BKN120
     FM011600 20008G17KT P6SM SCT025 OVC100=

USA.gov is the U.S. government's official web portal to all federal, state and local government web resources and services.